Location: Staunton
(38.1490°N, 79.0720°W)
Time: 00:06:45
(UTC-05:00)

ISS - Pass Details

Date: 23 February 2020
Orbit: 415 x 423 km, 51.6° (Epoch: 27 February)

Event Time Altitude Azimuth Distance (km) Brightness Sun altitude
Exits shadow 06:06:52 14° 252° (WSW) 1,266 -1.9 -10.6°
Maximum altitude 06:09:32 48° 325° (NW) 557 -3.4 -10.1°
Drops below altitude 10° 06:12:49 10° 41° (NE) 1,504 -0.4 -9.4°
Sets 06:14:58 0° 47° (NE) 2,372 0.7 -9.0°
